Find Molniya-3

NORAD ID: 21706 Int'l Des: 1991-065 Owner: UNKSR/MSVYAZ Country: SU operational
MEOELLIPTICALHEO_ELLIPTICALSEMI_SYNCMOLNIYA

Live Position

Loading 3D Globe...

About Molniya-3

Description loading...

Upcoming Passes

Passes for default location (London). Set your location on the main map for personalized predictions.

Altitude History

Loading altitude history...

Two-Line Element Set

1 21706U 91065A 26104.87478834 .00001205 00000-0 -38572-5 0 9998
2 21706 62.9475 330.8371 7428920 252.6512 20.1727 2.04466612255429
Epoch: Apr 14, 2026 • Age: 65 hours

Current Status

Altitude 38263.1 km
Velocity 1.63 km/s
Sub-Earth Point 61.31°N, 16.04°W
Launch Date Sep 17, 1991
Age 34.5 years
Type other

Technical Details

Classification Payload
Mass 1750.00 kg
Dry Mass 1700.00 kg
Total Mass 1750.00 kg
Length 3.60 m
Diameter 1.60 m
Span 8.10 m
Shape Cyl + 6 Pan
Manufacturer NPOPM
Bus Type Molniya-3
Phase Status In Orbit
Owner/State UNKSR/MSVYAZ/SU

Most Searched